Location: G�migny
(47.9646°N, 1.6950°E)
Time: 20:58:30
(UTC+00:00)

YAOGAN 6 - Pass Details

Date: 23 January 2020
Orbit: 465 x 506 km, 97.0° (Epoch: 23 February)

Event Time Altitude Azimuth Distance (km) Brightness Sun altitude
Rises 06:28:15 0° 17° (NNE) 2,551 6.2 -10.6°
Reaches altitude 10° 06:30:23 10° 23° (NNE) 1,659 5.3 -10.3°
Maximum altitude 06:33:50 47° 99° (E) 641 3.7 -9.7°
Drops below altitude 10° 06:37:13 10° 174° (S) 1,626 5.6 -9.2°
Sets 06:39:18 0° 180° (S) 2,493 6.4 -8.9°
